Regional Weather Roundup
Issued by NWS

Home | Current Version | Previous Version | Text Only | Print | Product List | Glossary Off
Versions: 1 2 3 4 5 6 7 8 9 10 11 12 13 14 15 16 17 18 19 20 21 22 23 24 25 26 27 28 29 30 31 32 33 34 35 36 37 38 39 40 41 42 43 44 45 46 47 48 49 50

000
ASUS43 KMPX 230110
RWRMN
WEATHER ROUNDUP FOR MINNESOTA
NATIONAL WEATHER SERVICE TWIN CITIES/CHANHASSEN MN
800 PM CDT SAT APR 22 2017


NOTE: "FAIR" INDICATES FEW OR NO CLOUDS BELOW 12,000 FEET WITH NO
SIGNIFICANT WEATHER AND/OR OBSTRUCTIONS TO VISIBILITY. N/A MEANS
CURRENT SKY AND/OR WEATHER CONDITIONS ARE NOT AVAILABLE.

MNZ060>063-068>070-230200-
   Twin Cities Metro

CITY           SKY/WX    TMP DP  RH WIND       PRES   REMARKS
TWIN CITIES    PTCLDY    65  34  31 W6        30.10F
ST PAUL        CLEAR     63  34  33 W9        30.11F
CRYSTAL        CLEAR     64  31  28 W8        30.09F
BLAINE         CLEAR     64  36  34 W7        30.10F
LAKEVILLE      CLEAR     61  36  39 W3        30.12S
EDEN PRAIRIE   CLEAR     65  33  30 W6        30.10F
SOUTH ST PAUL  CLEAR     65  33  30 W3        30.10F
LAKE ELMO      FAIR      61  37  41 SW7       30.11F
$$
MNZ001>005-007-008-013>017-022>024-027-028-230200-
   Northwest Minnesota

CITY           SKY/WX    TMP DP  RH WIND       PRES   REMARKS
BEMIDJI        PTCLDY    49  38  65 N14G20    30.09R
HALLOCK        CLOUDY    36  27  69 N14       30.23S
ROSEAU         CLOUDY    36  30  80 N8        30.19F
WARROAD        CLOUDY    37  32  81 NW7       30.19S
THIEF RVR FALL PTCLDY    37  30  75 N18G25    30.18R
CROOKSTON      PTCLDY    39  32  75 N16G24    30.19R
FOSSTON        CLOUDY    45  34  65 N17G24    30.12R
DETROIT LAKES  CLEAR     59  43  55 NW6       30.07S
MOORHEAD       PTCLDY    54  41  62 N20G29    30.09R
PARK RAPIDS    MOCLDY    61  38  42 NW3       30.04F
MAHNOMEN       CLOUDY    50  40  68 N20       30.08S
$$
MNZ006-009>011-018-025>026-230200-
   North Central Minnesota

CITY           SKY/WX    TMP DP  RH WIND       PRES   REMARKS
BAUDETTE       CLOUDY    38  35  89 NW10      30.16S
FLAG ISLAND    MOCLDY    37  28  70 N14       30.18S
INTL FALLS     LGT RAIN  39  36  89 NW7       30.13S
WASKISH        CLOUDY    39  36  87 N12G18    30.15S
BIG FORK       CLEAR     46  37  71 N12G20    30.10R
LONGVILLE      MOCLDY    59  39  47 CALM      30.05S
GRAND RAPIDS   MOCLDY    58  40  51 N14       30.07R
CRANE LAKE     LGT RAIN  43  37  81 NW9       30.14R
ORR            CLOUDY    45  34  65 MISG      30.09R
COOK           PTCLDY    46  37  71 N7G16     30.10R
WALKER         MOCLDY    55  40  58 N9        30.05S
$$
MNZ012-019>021-037-230200-
   Northeast Minnesota

CITY           SKY/WX    TMP DP  RH WIND       PRES   REMARKS
DULUTH         PTCLDY    60  36  40 W10       30.02F
ELY            CLEAR     46  36  66 N9        30.08R
HIBBING        MOCLDY    52  38  58 N13       30.05R
EVELETH        CLEAR     53  32  45 N7        30.07R
DULUTH HARBOR  CLEAR     64  37  36 SW9       30.02F
TWO HARBORS    PTCLDY    63  45  51 N5        30.00R
SILVER BAY     CLEAR     57  39  51 NW7       30.01R
GRAND MARAIS     N/A     53  38  56 N16G32    29.99S
G MARAIS ARPRT PTCLDY    45  34  65 NW12G17   30.05S
$$
MNZ029>031-032-039>041-046>048-054>057-064-230200-
   West Central Minnesota

CITY           SKY/WX    TMP DP  RH WIND       PRES   REMARKS
FERGUS FALLS   PTCLDY    61  43  51 SW7       30.03F
WHEATON        CLEAR     64  34  32 SW9       30.08F
MORRIS         CLEAR     63  39  42 SW7       30.07F
ALEXANDRIA     CLEAR     61  38  42 SW9       30.08F
ELBOW LAKE     FAIR      62  38  40 SW8       30.06F
WADENA         PTCLDY    61  39  44 SW6       30.06F
GLENWOOD       CLEAR     61  37  41 SW10      30.09F
APPLETON       CLEAR     63  36  36 SW7       30.08F
BENSON         CLEAR     63  30  29 W6        30.11F
ORTONVILLE     CLEAR     64  36  34 SW6       30.08F
MADISON        CLEAR     66  36  32 SW8       30.10F
WILLMAR        FAIR      63  43  48 W5        30.12F
$$
MNZ033>034-036-042>043-049>051-058-059-230200-
   Central Minnesota

CITY           SKY/WX    TMP DP  RH WIND       PRES   REMARKS
ST CLOUD       CLEAR     62  39  42 SW9       30.08F
SAUK CENTRE    FAIR      60  40  46 SW8       30.09F
PAYNESVILLE    CLEAR     62  34  35 SW8       30.10F
AITKIN         CLEAR     63  30  29 SW7       30.04S
PINE RIVER     CLEAR     63  39  42 W5        30.08F
BRAINERD       CLEAR     61  36  39 W10       30.06F
STAPLES        CLEAR     59  36  41 SW5       30.07S
LONG PRAIRIE   FAIR      61  36  39 SW6       30.08F
LITTLE FALLS   CLEAR     61  34  36 W3        30.08F
LITCHFIELD     CLEAR     64  39  39 CALM      30.11F
BUFFALO        CLEAR     62  36  37 SW3       30.11F
MAPLE LAKE     CLEAR     63  38  39 SW3       30.11F
HUTCHINSON     CLOUDY    63  42  45 W5        30.13F
$$
MNZ037-044-045-052-053-230200-
   East Central Minnesota

CITY           SKY/WX    TMP DP  RH WIND       PRES   REMARKS
PRINCETON      CLEAR     63  36  36 CALM      30.09F
MORA           CLEAR     61  34  36 W5        30.08F
CAMBRIDGE      CLEAR     64  43  45 CALM      30.07F
RUSH CITY      PTCLDY    61  32  33 SW5       30.08F
MOOSE LAKE     CLEAR     63  36  36 W8        30.03F
HINCKLEY       FAIR      61  37  41 W6        30.06F
CLOQUET        CLEAR     61  30  31 SW7       30.03F
MCGREGOR       CLEAR     63  36  36 SW6       30.05S
$$
MNZ071>073-080-081-089-090-097-098-230200-
   Southwest Minnesota

CITY           SKY/WX    TMP DP  RH WIND       PRES   REMARKS
MONTEVIDEO     CLEAR     64  36  34 W5        30.11F
GRANITE FALLS  CLEAR     65  35  33 W8        30.13F
CANBY          CLEAR     65  35  33 SW7       30.13F
MARSHALL       CLEAR     63  36  36 W10       30.13F
REDWOOD FALLS  CLEAR     63  34  33 W7        30.12F
OLIVIA         CLEAR     63  34  34 W8        30.11F
PIPESTONE      CLEAR     61  36  39 W7        30.15F
WINDOM         CLEAR     63  34  34 W7        30.15S
WORTHINGTON    CLEAR     62  35  36 W7        30.16F
JACKSON        CLEAR     59  32  36 W7        30.16S
TRACY          CLEAR     64  35  33 W3        30.14F
SLAYTON        CLEAR     61  37  40 W6        30.16S
$$
MNZ065>067-074>077-082>085-091>093-230200-
   South Central Minnesota

CITY           SKY/WX    TMP DP  RH WIND       PRES   REMARKS
MANKATO        CLEAR     64  34  32 W5        30.14
NEW ULM        CLEAR     63  34  34 W5        30.13S
ST JAMES       CLEAR     63  37  39 W5        30.15S
FAIRMONT       CLEAR     63  35  35 W7        30.15F
GLENCOE        CLEAR     65  36  34 W5        30.12S
FARIBAULT      PTCLDY    63  36  36 CALM      30.14S
OWATONNA       CLEAR     63  34  34 W5        30.14S
WASECA         CLEAR     63  34  34 W7        30.15F
ALBERT LEA     CLEAR     63  28  27 CALM      30.15S
$$
MNZ078>079-086>088-094>096-230200-
   Southeast Minnesota

CITY           SKY/WX    TMP DP  RH WIND       PRES   REMARKS
ROCHESTER      CLEAR     60  37  42 W6        30.14F
RED WING       CLEAR     64  30  27 W5        30.10F
STANTON        CLEAR     63  35  35 W5        30.11F
DODGE CENTER   CLEAR     61  34  36 W3        30.14F
WINONA         CLEAR     61  34  36 CALM      30.14S
AUSTIN         CLEAR     61  30  31 CALM      30.15S
PRESTON        CLEAR     60  31  33 CALM      30.16S
$$
ABBREVIATIONS USED IN REMARKS
   TC - TEMPERATURES IN CELSIUS
  WCI - WIND CHILL INDEX
   HX - HEAT INDEX
  VSB - VISIBILITY
$$




USA.gov is the U.S. government's official web portal to all federal, state and local government web resources and services.